[[{"header":{"parameterUnit":"m.s-1","parameterCategory":2,"la1":30.2991,"la2":30.254,"lo1":-89.0895,"lo2":-89.0444,"dy":0.0017,"dx":0.0017,"nx":28,"ny":28,"refTime":"2024-06-11T09:00:00:Z","depth":"0","parameterNumber":2,"parameterNumberName":"U-component_of_CURRENTS"},"data":[0,0,0,0,0,0,0,0,0,0,0,0,0,0,0,0,0,0,0,0,0,0,0,0,0,0,0,0,0,0,0,0,0,0,0,0,0,0,0,0,0,0,0,0,0,0,0,0,0,0,0,0,0,0,0,0,0,0,0.1552,0.1553,0,0.1752,0.1755,0.1758,0.1831,0.1829,0.1827,0.1826,0.2007,0.2013,0.202,0,0,0,0,0,0,0,0,0,0,0,0,0,0.1491,0.1491,0.1551,0.1553,0.1554,0.1751,0.1755,0.1759,0.1831,0.1829,0.1827,0.1825,0.2005,0.2013,0.202,0,0,0,0,0,0,0,0,0,0,0,0,0,0.1597,0.1491,0.1551,0.1606,0.1612,0.1751,0.1755,0.176,0.1831,0.1829,0.1826,0.1824,0.2002,0.2012,0.2021,0.2131,0,0,0.2051,0.2055,0,0,0,0,0,0,0,0,0.159,0.16,0.1597,0.1603,0.161,0.1754,0.18,0.1879,0.1832,0.176,0.1826,0.1823,0.1916,0.1932,0.1991,0.2139,0.2147,0.2051,0.2057,0.2061,0.2064,0,0,0,0,0,0,0,0.1583,0.1593,0.1642,0.1598,0.1606,0.1709,0.172,0.1818,0.1857,0.1766,0.1769,0.1775,0.192,0.1982,0.1996,0.215,0.2051,0.206,0.2066,0.2069,0.235,0.2351,0,0,0,0,0,0,0.1525,0.1585,0.1635,0.1647,0.1581,0.171,0.1724,0.1719,0.1857,0.1872,0.1777,0.1777,0.1967,0.1984,0.2002,0.2136,0.2061,0.207,0.2076,0.2348,0.235,0.2352,0,0,0,0,0,0,0.1523,0.1528,0.1627,0.1613,0.1631,0.1711,0.1708,0.1724,0.1781,0.1863,0.188,0.1813,0.1965,0.1989,0.2119,0.2143,0.2075,0.2083,0.2346,0.2349,0.2351,0.2406,0,0,0,0,0,0,0.1521,0.1526,0.1524,0.1608,0.1629,0.1721,0.171,0.173,0.1783,0.1786,0.1901,0.1915,0.1965,0.2104,0.2128,0.2155,0.2091,0.2344,0.2347,0.235,0.2402,0.241,0.2417,0,0,0,0,0,0.1518,0.1522,0.1522,0.1529,0.1616,0.1722,0.1747,0.1803,0.1786,0.184,0.1919,0.1911,0.2138,0.2117,0.2143,0.2173,0.2342,0.2346,0.235,0.2399,0.2409,0.2417,0,0,0,0,0,0,0.151,0.1531,0.1533,0.1546,0.1628,0.173,0.1774,0.1806,0.1915,0.191,0.1977,0.2002,0.2118,0.2142,0.2115,0.2257,0.2222,0.2232,0.225,0.226,0.2267,0.2253,0.2099,0,0,0,0,0,0.1498,0.1498,0.156,0.1579,0.1608,0.1691,0.174,0.1783,0.1873,0.1917,0.1999,0.2072,0.216,0.2205,0.2294,0.2397,0.2397,0.2417,0.2424,0.243,0.2435,0.2514,0.2529,0.2364,0.2364,0.2364,0,0,0.1499,0.1511,0.1513,0.1576,0.1636,0.1729,0.1719,0.1796,0.188,0.1922,0.2064,0.2122,0.2197,0.2315,0.2361,0.2335,0.2464,0.2435,0.244,0.2442,0.252,0.2536,0.255,0.2367,0.2367,0.2366,0,0,0.1515,0.1513,0.1527,0.1602,0.1679,0.1752,0.1768,0.1879,0.1929,0.2074,0.2107,0.219,0.2335,0.2396,0.2439,0.2541,0.2513,0.2536,0.2563,0.264,0.2654,0.2667,0.2629,0.2638,0.2527,0.2527,0.2527,0,0.1519,0.1542,0.1563,0.1626,0.1693,0.1758,0.1841,0.1928,0.2075,0.2111,0.2118,0.2312,0.2379,0.2494,0.2526,0.256,0.2557,0.2526,0.265,0.2663,0.2676,0.2634,0.2644,0.253,0.253,0.2529,0.2529,0,0.1568,0.1605,0.1632,0.1723,0.1812,0.1894,0.2,0.2086,0.214,0.2209,0.2326,0.243,0.2521,0.2548,0.2583,0.2683,0.2633,0.2662,0.2627,0.2696,0.2646,0.2655,0.2535,0.2533,0.2533,0.2532,0,0,0.1536,0.1637,0.165,0.1713,0.1864,0.1948,0.2074,0.2198,0.2253,0.2374,0.2446,0.2596,0.2595,0.2643,0.2674,0.2739,0.2814,0.2732,0.2735,0.2689,0.29,0.2619,0.26,0.2871,0.2875,0.2877,0.2808,0,0.1575,0.167,0.1732,0.1889,0.1961,0.2069,0.2185,0.2301,0.2381,0.2476,0.2534,0.263,0.2644,0.2674,0.275,0.2816,0.2849,0.2824,0.2843,0.2842,0.2583,0.2607,0.2414,0.2317,0.2817,0.2818,0.2819,0,0.1612,0.1672,0.178,0.1944,0.1986,0.2096,0.2256,0.2372,0.2491,0.2535,0.2607,0.2651,0.2751,0.2759,0.2878,0.2858,0.288,0.2914,0.2913,0.2643,0.2579,0.2342,0.2314,0.2233,0.2832,0.2831,0.283,0,0.157,0.1724,0.1797,0.1863,0.205,0.2115,0.2229,0.2367,0.2447,0.2555,0.2592,0.2702,0.2751,0.2838,0.2871,0.2897,0.2964,0.301,0.2761,0.2737,0.2568,0.2523,0.2464,0.3095,0.3095,0.3095,0.3096,0,0.1587,0.1665,0.1776,0.1828,0.1948,0.2088,0.2209,0.2314,0.2438,0.2513,0.2602,0.2648,0.2788,0.2825,0.287,0.2787,0.2954,0.2747,0.2716,0.2568,0.2526,0.2442,0.2445,0.3093,0.3093,0.3094,0.3094,0,0.1542,0.1607,0.1713,0.1868,0.1923,0.2011,0.2204,0.2281,0.2389,0.2482,0.2512,0.2627,0.2641,0.2692,0.2796,0.2732,0.2603,0.2655,0.2391,0.2327,0.1967,0.1979,0.1834,0.1801,0.2361,0.2354,0.2348,0,0.153,0.1559,0.1703,0.1762,0.1833,0.1971,0.2061,0.2231,0.2304,0.2449,0.2475,0.251,0.2502,0.2454,0.2363,0.2285,0.2334,0.2029,0.2052,0.1883,0.1881,0.1899,0.1891,0.1844,0.1834,0.1826,0.182,0,0.1513,0.1539,0.1606,0.1704,0.1801,0.193,0.206,0.211,0.228,0.2325,0.2364,0.2366,0.2252,0.2056,0.1886,0.1838,0.1863,0.1853,0.1825,0.1557,0.1441,0.1412,0.1888,0.175,0.1757,0.1762,0.1766,0.1768,0.1491,0.1509,0.1569,0.1665,0.1769,0.1869,0.1925,0.2016,0.2091,0.2113,0.2186,0.206,0.1833,0.155,0.1481,0.1133,0.1332,0.1063,0.1112,0.1163,0.106,0.1275,0.1009,0.1012,0.1014,0.1016,0.1018,0,0.147,0.148,0.1546,0.1642,0.1707,0.18,0.191,0.1913,0.1908,0.1873,0.1843,0.1487,0.1206,0.1,0.059,0.0445,0.0538,0.0416,0.0496,0.0552,0.0855,0.0758,0.0248,0.0248,0.0249,0.0249,0.0249,0.0249,0.1464,0.1474,0.1485,0.1556,0.1618,0.1673,0.1709,0.1683,0.1638,0.1405,0.1151,0.1036,0.0732,0.0317,0.0005,-0.0007,0.0073,-0.0047,0.0111,0.039,0.046,0.0526,0.0438,-0.013,-0.0131,-0.0222,-0.0223,-0.0224]},{"header":{"parameterUnit":"m.s-1","parameterCategory":2,"la1":30.2991,"la2":30.254,"lo1":-89.0895,"lo2":-89.0444,"dy":0.0017,"dx":0.0017,"nx":28,"ny":28,"refTime":"2024-06-11T09:00:00:Z","depth":"0","parameterNumber":3,"parameterNumberName":"V-component_of_CURRENTS"},"data":[0,0,0,0,0,0,0,0,0,0,0,0,0,0,0,0,0,0,0,0,0,0,0,0,0,0,0,0,0,0,0,0,0,0,0,0,0,0,0,0,0,0,0,0,0,0,0,0,0,0,0,0,0,0,0,0,0,0,-0.0178,-0.0179,0,-0.034,-0.0343,-0.0345,-0.0429,-0.0428,-0.0427,-0.0427,-0.0578,-0.0582,-0.0587,0,0,0,0,0,0,0,0,0,0,0,0,0,-0.0107,-0.0107,-0.0178,-0.0179,-0.018,-0.034,-0.0343,-0.0346,-0.0429,-0.0428,-0.0427,-0.0427,-0.0576,-0.0582,-0.0587,0,0,0,0,0,0,0,0,0,0,0,0,0,-0.0198,-0.0108,-0.0177,-0.0235,-0.0241,-0.0339,-0.0343,-0.0346,-0.0429,-0.0428,-0.0427,-0.0426,-0.0575,-0.0581,-0.0588,-0.0651,0,0,-0.061,-0.0613,0,0,0,0,0,0,0,0,-0.0192,-0.0201,-0.0225,-0.0231,-0.0238,-0.0356,-0.0373,-0.0445,-0.0429,-0.0367,-0.0427,-0.0426,-0.0498,-0.0511,-0.0556,-0.0658,-0.0665,-0.061,-0.0614,-0.0617,-0.0619,0,0,0,0,0,0,0,-0.0186,-0.0196,-0.025,-0.0226,-0.0234,-0.0309,-0.032,-0.0388,-0.0442,-0.0372,-0.0376,-0.0381,-0.0502,-0.0549,-0.056,-0.0667,-0.061,-0.0616,-0.062,-0.0623,-0.0705,-0.0703,0,0,0,0,0,0,-0.0141,-0.0189,-0.0245,-0.0254,-0.0203,-0.031,-0.0323,-0.0326,-0.0442,-0.0456,-0.0382,-0.0384,-0.0538,-0.0552,-0.0565,-0.0568,-0.0617,-0.0624,-0.0628,-0.0707,-0.0705,-0.0703,0,0,0,0,0,0,-0.0139,-0.0145,-0.0238,-0.0219,-0.0235,-0.031,-0.0314,-0.0329,-0.0368,-0.0448,-0.0464,-0.0402,-0.0537,-0.0556,-0.0617,-0.0577,-0.0627,-0.0633,-0.071,-0.0706,-0.0704,-0.0624,0,0,0,0,0,0,-0.0136,-0.0143,-0.0142,-0.0216,-0.0234,-0.0289,-0.0315,-0.0333,-0.0369,-0.0374,-0.0471,-0.0485,-0.0538,-0.0606,-0.0623,-0.0588,-0.0639,-0.0712,-0.0708,-0.0705,-0.0629,-0.0618,-0.0609,0,0,0,0,0,-0.0133,-0.0131,-0.0141,-0.0148,-0.0225,-0.0289,-0.0307,-0.0364,-0.037,-0.0394,-0.045,-0.0481,-0.0592,-0.0612,-0.0633,-0.0598,-0.0714,-0.0709,-0.0705,-0.0633,-0.062,-0.061,0,0,0,0,0,0,-0.0107,-0.0141,-0.0153,-0.0162,-0.0215,-0.0299,-0.0322,-0.0357,-0.0426,-0.0424,-0.0496,-0.0515,-0.0541,-0.0582,-0.0602,-0.0602,-0.0642,-0.0642,-0.058,-0.0569,-0.0559,-0.0525,-0.0645,0,0,0,0,0,-0.0094,-0.0097,-0.015,-0.0159,-0.0177,-0.0248,-0.0281,-0.0317,-0.0379,-0.0409,-0.0474,-0.0517,-0.0543,-0.0567,-0.0613,-0.0643,-0.0631,-0.0617,-0.0607,-0.0599,-0.058,-0.0515,-0.0497,-0.0688,-0.0688,-0.0688,0,0,-0.0087,-0.0104,-0.0108,-0.0153,-0.0197,-0.0235,-0.0268,-0.0309,-0.0336,-0.0413,-0.0473,-0.0503,-0.0543,-0.0565,-0.0576,-0.0595,-0.054,-0.0593,-0.0586,-0.0572,-0.0508,-0.0489,-0.0473,-0.0685,-0.0685,-0.0686,0,0,-0.0073,-0.0086,-0.0085,-0.0124,-0.0171,-0.0221,-0.0224,-0.0303,-0.0329,-0.0391,-0.0418,-0.0419,-0.0513,-0.0506,-0.0516,-0.0478,-0.0493,-0.0484,-0.0414,-0.035,-0.0334,-0.0319,-0.0288,-0.0271,-0.0475,-0.0475,-0.0475,0,-0.0063,-0.007,-0.0101,-0.0118,-0.0145,-0.0205,-0.0227,-0.027,-0.0361,-0.0355,-0.0393,-0.0429,-0.0471,-0.0434,-0.0416,-0.0453,-0.0435,-0.0462,-0.0336,-0.0321,-0.0308,-0.0279,-0.0262,-0.0471,-0.0471,-0.0472,-0.0472,0,-0.0057,-0.0068,-0.0073,-0.0109,-0.0146,-0.0176,-0.0226,-0.0252,-0.0285,-0.0312,-0.0295,-0.0343,-0.0344,-0.0344,-0.0383,-0.0289,-0.0314,-0.0335,-0.0366,-0.0284,-0.0259,-0.0242,-0.0465,-0.0466,-0.0467,-0.0469,0,0,-0.0025,-0.0059,-0.0062,-0.0069,-0.0141,-0.0166,-0.0188,-0.0209,-0.0181,-0.0239,-0.0192,-0.0215,-0.0206,-0.0212,-0.0228,-0.0178,-0.0077,-0.0213,-0.0212,-0.0182,0.0049,0.0035,0.0051,-0.0076,-0.0073,-0.007,0.0023,0,-0.0015,-0.0023,-0.0055,-0.008,-0.0092,-0.0137,-0.0146,-0.0162,-0.0174,-0.0148,-0.013,-0.0108,-0.0164,-0.014,-0.0096,-0.0077,-0.0027,-0.0101,-0.0035,-0.0034,-0.0055,0.0073,0.0088,0.0173,0.004,0.0042,0.0044,0,-0.0004,-0.0009,-0.0016,-0.0033,-0.0039,-0.0059,-0.0047,-0.0062,-0.0026,-0.002,0.0023,0.0019,0.0089,0.0029,0.0118,0.0072,0.0073,0.0079,0.0082,0.0057,-0.0014,0.0072,0.0208,0.022,0.007,0.0068,0.0066,0,0.0043,0.0016,0.0021,0.0005,-0.0024,-0.001,-0.0022,-0.0003,0.0025,0.0083,0.0127,0.0179,0.023,0.0251,0.024,0.0195,0.0334,0.0272,0.0259,0.0256,0.0278,0.0271,0.0438,0.0352,0.0352,0.0351,0.0351,0,0.0062,0.0064,0.0055,0.0055,0.0087,0.005,0.0103,0.0107,0.0156,0.0227,0.0213,0.0294,0.0294,0.0348,0.0315,0.0354,0.0398,0.0311,0.0304,0.0303,0.0298,0.0311,0.03,0.0355,0.0354,0.0353,0.0353,0,0.0103,0.0091,0.0103,0.0102,0.0109,0.0137,0.0164,0.0215,0.0246,0.0345,0.0373,0.0424,0.0496,0.0475,0.0528,0.0469,0.0507,0.048,0.046,0.0449,0.0424,0.0415,0.0575,0.0596,0.0497,0.0497,0.0498,0,0.012,0.0134,0.0152,0.0177,0.0178,0.0215,0.0251,0.0267,0.0322,0.0431,0.0496,0.0584,0.0662,0.0712,0.0642,0.0611,0.0579,0.0575,0.0495,0.0474,0.0459,0.0447,0.0451,0.0548,0.0549,0.055,0.0551,0,0.0158,0.0171,0.0189,0.0245,0.0283,0.0325,0.0377,0.0433,0.0481,0.0574,0.0708,0.0784,0.0817,0.0819,0.0747,0.0698,0.0604,0.0586,0.0602,0.0566,0.0534,0.0531,0.0403,0.0557,0.0556,0.0556,0.0556,0.0555,0.0195,0.0223,0.0261,0.0312,0.0363,0.0433,0.0488,0.056,0.067,0.0814,0.0866,0.0978,0.0941,0.0858,0.0806,0.0684,0.0671,0.0631,0.0636,0.0635,0.0635,0.0505,0.062,0.062,0.062,0.0619,0.0619,0,0.0233,0.0268,0.0322,0.0387,0.0457,0.0468,0.057,0.0639,0.0783,0.0912,0.1037,0.1051,0.1036,0.0931,0.0776,0.0736,0.0709,0.0717,0.072,0.0731,0.0661,0.064,0.0722,0.0722,0.0722,0.0722,0.0722,0.0722,0.0256,0.0311,0.0337,0.0454,0.0506,0.0599,0.0662,0.0785,0.0881,0.1027,0.1065,0.1089,0.0978,0.0895,0.0813,0.079,0.0803,0.0799,0.0805,0.075,0.0742,0.0734,0.0715,0.0812,0.0812,0.0879,0.0879,0.088]}],[{"header":{"parameterUnit":"m.s-1","parameterCategory":2,"la1":30.2991,"la2":30.254,"lo1":-89.0895,"lo2":-89.0444,"dy":0.0017,"dx":0.0017,"nx":28,"ny":28,"refTime":"2024-06-11T09:00:00:Z","depth":"2","parameterNumber":2,"parameterNumberName":"U-component_of_CURRENTS"},"data":[0,0,0,0,0,0,0,0,0,0,0,0,0,0,0,0,0,0,0,0,0,0,0,0,0,0,0,0,0,0,0,0,0,0,0,0,0,0,0,0,0,0,0,0,0,0,0,0,0,0,0,0,0,0,0,0,0,0,0.1425,0.1425,0,0.153,0.1532,0.1534,0.1598,0.1598,0.1598,0.1598,0.1745,0.1749,0.1753,0,0,0,0,0,0,0,0,0,0,0,0,0,0.1396,0.1396,0.1425,0.1425,0.1426,0.153,0.1532,0.1534,0.1598,0.1598,0.1598,0.1598,0.1743,0.1748,0.1753,0,0,0,0,0,0,0,0,0,0,0,0,0,0.145,0.1396,0.1424,0.1467,0.1472,0.153,0.1532,0.1535,0.1598,0.1598,0.1598,0.1598,0.1742,0.1748,0.1754,0.1795,0,0,0.1772,0.1775,0,0,0,0,0,0,0,0,0.1447,0.1451,0.146,0.1464,0.1469,0.1547,0.1576,0.1622,0.1598,0.1555,0.1598,0.1598,0.1679,0.169,0.1717,0.1801,0.1808,0.1773,0.1776,0.1779,0.1781,0,0,0,0,0,0,0,0.1443,0.1448,0.1471,0.1461,0.1467,0.1521,0.1528,0.1586,0.1622,0.1559,0.1563,0.1567,0.1683,0.1711,0.1721,0.181,0.1772,0.1778,0.1781,0.1784,0.1966,0.1967,0,0,0,0,0,0,0.1414,0.1444,0.1468,0.1474,0.1452,0.1521,0.1529,0.1526,0.162,0.1633,0.1567,0.1569,0.1701,0.1714,0.1726,0.1865,0.1779,0.1784,0.1788,0.1965,0.1966,0.1968,0,0,0,0,0,0,0.1413,0.1415,0.1464,0.1458,0.1468,0.152,0.1517,0.1528,0.1566,0.1625,0.1639,0.1593,0.1701,0.1718,0.1803,0.1868,0.1787,0.1793,0.1963,0.1965,0.1967,0.2088,0,0,0,0,0,0,0.1411,0.1414,0.1415,0.1456,0.1466,0.1537,0.1517,0.153,0.1565,0.157,0.1652,0.1665,0.1702,0.1794,0.1809,0.1875,0.1797,0.1962,0.1964,0.1966,0.2082,0.2094,0.2103,0,0,0,0,0,0.141,0.1415,0.1414,0.1417,0.1461,0.1539,0.1553,0.1592,0.1567,0.1617,0.1654,0.1663,0.1818,0.1801,0.1818,0.1887,0.1961,0.1964,0.1966,0.2078,0.2091,0.2103,0,0,0,0,0,0,0.1414,0.1423,0.1422,0.1432,0.1495,0.1549,0.158,0.1594,0.1661,0.1655,0.1695,0.1714,0.1819,0.1817,0.1796,0.1937,0.1884,0.1891,0.1963,0.1976,0.1987,0.1984,0.1802,0,0,0,0,0,0.1408,0.1409,0.145,0.1465,0.1485,0.1528,0.156,0.1592,0.1644,0.1672,0.1735,0.1779,0.1841,0.1878,0.1943,0.2019,0.1989,0.2064,0.2074,0.2083,0.2088,0.2149,0.2166,0.1977,0.1977,0.1977,0,0,0.1411,0.1417,0.1418,0.1465,0.15,0.157,0.155,0.1608,0.1676,0.1677,0.1794,0.1837,0.187,0.1976,0.2018,0.1985,0.2102,0.2087,0.2095,0.2095,0.2154,0.2172,0.2189,0.1978,0.1978,0.1978,0,0,0.1425,0.1424,0.1434,0.1498,0.1555,0.1599,0.1615,0.1692,0.1737,0.1846,0.1857,0.1932,0.2035,0.2084,0.2109,0.2203,0.2167,0.2212,0.2266,0.2325,0.2342,0.2357,0.2265,0.227,0.2206,0.2206,0.2207,0,0.143,0.1442,0.1463,0.1516,0.1564,0.1611,0.1671,0.1741,0.185,0.1878,0.19,0.2042,0.2092,0.218,0.2226,0.2236,0.2206,0.2225,0.2343,0.2357,0.237,0.2273,0.2278,0.2212,0.2212,0.2211,0.2211,0,0.1471,0.1495,0.1516,0.1588,0.1662,0.1722,0.1815,0.1891,0.1939,0.1998,0.2112,0.2193,0.2259,0.2299,0.2306,0.2412,0.2333,0.2364,0.2319,0.2398,0.2287,0.229,0.2221,0.2219,0.2217,0.2216,0,0,0.1443,0.1517,0.1529,0.1575,0.1697,0.1768,0.1872,0.197,0.2021,0.215,0.2222,0.2359,0.2375,0.2402,0.2425,0.249,0.2552,0.2472,0.2472,0.2389,0.2576,0.2343,0.2321,0.2621,0.2624,0.2627,0.2433,0,0.1464,0.1545,0.1586,0.1706,0.1766,0.1847,0.1946,0.2051,0.2135,0.2236,0.2303,0.2393,0.2418,0.2451,0.2534,0.2559,0.2578,0.2594,0.2503,0.2496,0.2293,0.2327,0.2181,0.1984,0.2435,0.2436,0.2436,0,0.1495,0.1546,0.1625,0.1747,0.1778,0.1865,0.2002,0.2098,0.2222,0.2275,0.2363,0.2416,0.2504,0.254,0.2602,0.2609,0.2601,0.2614,0.2607,0.2357,0.2273,0.1993,0.1972,0.244,0.244,0.2439,0.2439,0,0.1472,0.1584,0.1632,0.1687,0.183,0.1876,0.1965,0.2099,0.2154,0.2286,0.2321,0.2439,0.2467,0.2546,0.254,0.2591,0.2575,0.2637,0.2391,0.2367,0.2204,0.2162,0.2689,0.2689,0.269,0.269,0.2691,0,0.1478,0.1535,0.1623,0.1666,0.1746,0.187,0.1952,0.2045,0.2156,0.2206,0.2325,0.2352,0.2491,0.2488,0.2522,0.2403,0.2537,0.238,0.2331,0.2225,0.2189,0.2578,0.2568,0.2683,0.2684,0.2686,0.2687,0,0.1445,0.1492,0.1566,0.1688,0.1725,0.1794,0.1914,0.1972,0.2077,0.2142,0.2169,0.2265,0.2243,0.2286,0.2342,0.2299,0.2267,0.2189,0.1962,0.1891,0.2014,0.2012,0.1911,0.1902,0.1894,0.1887,0.1882,0,0.1431,0.1455,0.1553,0.1587,0.1631,0.173,0.1779,0.1908,0.1951,0.2061,0.2067,0.207,0.203,0.1933,0.1895,0.1806,0.1994,0.1589,0.1696,0.1986,0.1948,0.1959,0.1968,0.1488,0.148,0.1473,0.1467,0,0.1412,0.1424,0.1472,0.1523,0.1572,0.1633,0.1714,0.1725,0.1851,0.1868,0.1858,0.1832,0.172,0.1552,0.1408,0.1375,0.1604,0.144,0.1854,0.1698,0.157,0.1539,0.1565,0.1407,0.1413,0.1418,0.1421,0.1423,0.1385,0.1395,0.1427,0.1474,0.1517,0.1542,0.1545,0.1586,0.159,0.1578,0.1611,0.1484,0.1439,0.113,0.1034,0.0966,0.1125,0.1112,0.1141,0.1177,0.1153,0.102,0.0739,0.0741,0.0743,0.0744,0.0746,0,0.1361,0.1366,0.1394,0.1416,0.1409,0.1477,0.1496,0.1445,0.1373,0.1327,0.1256,0.1043,0.0848,0.0823,0.0616,0.0544,0.0649,0.052,0.07,0.0756,0.0806,0.0777,0.0255,0.0254,0.0253,0.0252,0,0,0.1352,0.1342,0.1341,0.1305,0.132,0.1292,0.1286,0.1184,0.1115,0.0956,0.0839,0.0801,0.0779,0.0535,0.0461,0.0334,0.0561,0.0295,0.0684,0.0953,0.1004,0.1124,0.1133,0,0,0,0,0]},{"header":{"parameterUnit":"m.s-1","parameterCategory":2,"la1":30.2991,"la2":30.254,"lo1":-89.0895,"lo2":-89.0444,"dy":0.0017,"dx":0.0017,"nx":28,"ny":28,"refTime":"2024-06-11T09:00:00:Z","depth":"2","parameterNumber":3,"parameterNumberName":"V-component_of_CURRENTS"},"data":[0,0,0,0,0,0,0,0,0,0,0,0,0,0,0,0,0,0,0,0,0,0,0,0,0,0,0,0,0,0,0,0,0,0,0,0,0,0,0,0,0,0,0,0,0,0,0,0,0,0,0,0,0,0,0,0,0,0,-0.0039,-0.0039,0,-0.0101,-0.0102,-0.0103,-0.0164,-0.0165,-0.0165,-0.0166,-0.018,-0.018,-0.0179,0,0,0,0,0,0,0,0,0,0,0,0,0,-0.0004,-0.0004,-0.0038,-0.0039,-0.0039,-0.0101,-0.0102,-0.0103,-0.0164,-0.0165,-0.0166,-0.0166,-0.018,-0.018,-0.0179,0,0,0,0,0,0,0,0,0,0,0,0,0,-0.0041,-0.0005,-0.0038,-0.0075,-0.0079,-0.0101,-0.0102,-0.0104,-0.0164,-0.0165,-0.0166,-0.0166,-0.018,-0.018,-0.0179,-0.0163,0,0,-0.0179,-0.0179,0,0,0,0,0,0,0,0,-0.0039,-0.0042,-0.0069,-0.0073,-0.0077,-0.0123,-0.0095,-0.012,-0.0164,-0.0135,-0.0166,-0.0167,-0.0154,-0.0156,-0.0171,-0.0163,-0.0164,-0.0179,-0.0179,-0.0179,-0.0179,0,0,0,0,0,0,0,-0.0036,-0.004,-0.0066,-0.007,-0.0074,-0.0099,-0.0106,-0.0101,-0.0141,-0.0138,-0.0141,-0.0143,-0.0156,-0.0171,-0.0171,-0.0164,-0.0179,-0.0179,-0.0179,-0.0179,-0.0111,-0.0109,0,0,0,0,0,0,-0.002,-0.0038,-0.0064,-0.0068,-0.0056,-0.0099,-0.0106,-0.011,-0.0142,-0.0147,-0.0143,-0.0146,-0.0171,-0.0171,-0.0172,-0.0143,-0.0179,-0.0178,-0.0178,-0.0113,-0.011,-0.0109,0,0,0,0,0,0,-0.0019,-0.0021,-0.0062,-0.0052,-0.0058,-0.0098,-0.0102,-0.0111,-0.0135,-0.0146,-0.0151,-0.0159,-0.0171,-0.0172,-0.016,-0.0144,-0.0178,-0.0178,-0.0115,-0.0112,-0.011,-0.0091,0,0,0,0,0,0,-0.0017,-0.0021,-0.0021,-0.0051,-0.0058,-0.0091,-0.0102,-0.0111,-0.0133,-0.0139,-0.0161,-0.0163,-0.0172,-0.016,-0.016,-0.0144,-0.0178,-0.0117,-0.0113,-0.011,-0.0094,-0.0088,-0.0083,0,0,0,0,0,-0.0016,-0.0014,-0.002,-0.0023,-0.0056,-0.0091,-0.0099,-0.0131,-0.0133,-0.0154,-0.0146,-0.0163,-0.0139,-0.0159,-0.0159,-0.0143,-0.0118,-0.0114,-0.0111,-0.0096,-0.0089,-0.0084,0,0,0,0,0,0,-0.0003,-0.0021,-0.0028,-0.0033,-0.0065,-0.0101,-0.0111,-0.0131,-0.0144,-0.0136,-0.0148,-0.0149,-0.0134,-0.0132,-0.0153,-0.0109,-0.0128,-0.0124,-0.0117,-0.0111,-0.0106,-0.0071,-0.0178,0,0,0,0,0,0.0005,0.0002,-0.0028,-0.0032,-0.0042,-0.0075,-0.0091,-0.0112,-0.0125,-0.0134,-0.0153,-0.0141,-0.0116,-0.011,-0.0105,-0.0082,-0.0061,-0.0066,-0.0061,-0.0057,-0.0025,0.0035,0.0049,-0.0096,-0.0096,-0.0096,0,0,0.001,0.0001,-0.0001,-0.0029,-0.0048,-0.006,-0.0088,-0.0109,-0.0106,-0.0127,-0.0131,-0.0134,-0.0106,-0.0085,-0.0076,-0.0082,-0.0012,-0.0052,-0.0049,-0.0019,0.0041,0.0055,0.0067,-0.0094,-0.0094,-0.0094,0,0,0.0024,0.0012,0.0016,-0.0008,-0.0032,-0.0051,-0.0056,-0.0099,-0.0104,-0.0109,-0.0103,-0.0083,-0.0089,-0.005,-0.0027,0.002,0.0008,0.0006,0.0064,0.0122,0.0134,0.0146,0.0153,0.0165,0.0015,0.0015,0.0015,0,0.0032,0.0037,0.0007,0.0002,0.0001,-0.0042,-0.0036,-0.005,-0.0086,-0.0053,-0.0107,-0.0051,-0.0057,0.0041,0.0043,0.0033,0.0042,0.003,0.0128,0.014,0.0152,0.0157,0.017,0.0017,0.0016,0.0016,0.0016,0,0.0044,0.0048,0.0049,0.0039,0.0025,0.0021,0.0005,0.0004,-0.0011,-0.0014,0.0039,0.0028,0.0075,0.0066,0.0062,0.0154,0.0123,0.0118,0.0108,0.0167,0.0169,0.0182,0.0019,0.0018,0.0018,0.0017,0,0,0.0068,0.0063,0.0064,0.0081,0.0053,0.005,0.0079,0.011,0.0171,0.0118,0.0196,0.0206,0.0195,0.0224,0.0218,0.0257,0.0308,0.0216,0.0218,0.0216,0.0399,0.0343,0.0351,0.0311,0.0315,0.0317,0.0353,0,0.0093,0.0106,0.0102,0.0129,0.0137,0.0138,0.0178,0.0204,0.022,0.0272,0.0291,0.0335,0.026,0.0282,0.031,0.0321,0.0351,0.0298,0.0351,0.0352,0.029,0.0369,0.0357,0.0387,0.0366,0.0368,0.037,0,0.0112,0.0122,0.0152,0.0208,0.0219,0.0233,0.0328,0.0355,0.0434,0.0452,0.0496,0.0489,0.0543,0.046,0.0508,0.0471,0.0443,0.0432,0.0433,0.0396,0.0324,0.0335,0.0412,0.0392,0.039,0.0389,0.0387,0,0.0143,0.0171,0.0208,0.0212,0.0253,0.0305,0.0338,0.0415,0.0483,0.0566,0.0613,0.0659,0.0678,0.0673,0.0596,0.0569,0.063,0.0597,0.0524,0.0517,0.0532,0.0521,0.0653,0.0653,0.0653,0.0653,0.0653,0,0.0174,0.0207,0.0228,0.0243,0.0332,0.0342,0.0458,0.051,0.0606,0.0699,0.0697,0.0766,0.0731,0.0736,0.0668,0.0625,0.0685,0.0564,0.0547,0.0531,0.0521,0.055,0.0537,0.0654,0.0654,0.0654,0.0654,0,0.02,0.0207,0.0255,0.031,0.0341,0.0397,0.0511,0.0603,0.0669,0.0791,0.0816,0.0866,0.0861,0.0801,0.0792,0.0716,0.0685,0.0649,0.0598,0.0575,0.0514,0.0503,0.0613,0.0612,0.0611,0.061,0.061,0,0.0215,0.0235,0.0297,0.0339,0.0367,0.0453,0.0535,0.0626,0.0721,0.0845,0.0915,0.094,0.0952,0.0895,0.0789,0.0691,0.067,0.0612,0.0577,0.0551,0.0523,0.0512,0.0502,0.0586,0.0585,0.0584,0.0584,0,0.0249,0.0265,0.0304,0.0379,0.0457,0.0562,0.0672,0.0756,0.0868,0.0956,0.1056,0.1068,0.0997,0.0899,0.0746,0.0676,0.0628,0.0594,0.0639,0.0582,0.0524,0.0496,0.0488,0.0578,0.0578,0.0579,0.0579,0.0579,0.028,0.031,0.0355,0.0436,0.0526,0.0651,0.0745,0.0856,0.0989,0.1094,0.1109,0.1086,0.0998,0.0777,0.068,0.0568,0.0587,0.0536,0.054,0.0543,0.0519,0.0462,0.0496,0.0496,0.0496,0.0496,0.0496,0,0.0311,0.0348,0.0415,0.0512,0.0609,0.0659,0.0833,0.0913,0.1043,0.1076,0.1113,0.097,0.0863,0.0743,0.0576,0.0494,0.0494,0.0455,0.0481,0.0487,0.0493,0.0467,0.0429,0.0429,0.0428,0.0428,0,0,0.0331,0.0386,0.0416,0.0558,0.0635,0.0781,0.0878,0.0978,0.1027,0.1041,0.0993,0.0952,0.0835,0.0695,0.0602,0.051,0.051,0.0484,0.0547,0.0595,0.0601,0.055,0.0517,0,0,0,0,0]}],[{"header":{"parameterUnit":"m.s-1","parameterCategory":2,"la1":30.2991,"la2":30.254,"lo1":-89.0895,"lo2":-89.0444,"dy":0.0017,"dx":0.0017,"nx":28,"ny":28,"refTime":"2024-06-11T09:00:00:Z","depth":"4","parameterNumber":2,"parameterNumberName":"U-component_of_CURRENTS"},"data":[0,0,0,0,0,0,0,0,0,0,0,0,0,0,0,0,0,0,0,0,0,0,0,0,0,0,0,0,0,0,0,0,0,0,0,0,0,0,0,0,0,0,0,0,0,0,0,0,0,0,0,0,0,0,0,0,0,0,0.0737,0.0735,0,0.0397,0.0392,0.0386,0.026,0.0263,0.0266,0.0269,0.0138,0.0132,0.0125,0,0,0,0,0,0,0,0,0,0,0,0,0,0.0843,0.0842,0.0737,0.0735,0.0732,0.0398,0.0391,0.0385,0.0259,0.0263,0.0267,0.027,0.014,0.0132,0.0125,0,0,0,0,0,0,0,0,0,0,0,0,0,0.0659,0.0842,0.0737,0.0646,0.0636,0.04,0.0391,0.0383,0.0258,0.0263,0.0268,0.0272,0.0143,0.0133,0.0124,-0.0032,0,0,0.0094,0.009,0,0,0,0,0,0,0,0,0.067,0.0653,0.0662,0.0652,0.0641,0.0396,0.0382,0.0262,0.0257,0.0378,0.0269,0.0275,0.0255,0.0236,0.0126,-0.0038,-0.0043,0.0093,0.0087,0.0083,0.008,0,0,0,0,0,0,0,0.0684,0.0664,0.0579,0.066,0.0647,0.0476,0.0456,0.0353,0.028,0.0367,0.0363,0.036,0.0248,0.0135,0.0123,-0.0045,0.0093,0.0085,0.0079,0.0075,0.0141,0.0148,0,0,0,0,0,0,0.0789,0.0678,0.059,0.0571,0.0693,0.0474,0.045,0.0451,0.0276,0.0259,0.0357,0.0356,0.0149,0.0135,0.0119,0.0212,0.0083,0.0074,0.0069,0.0133,0.0143,0.0151,0,0,0,0,0,0,0.0792,0.0784,0.0604,0.0634,0.0603,0.0473,0.047,0.0442,0.0393,0.027,0.0253,0.0349,0.0153,0.0133,0.0093,0.0197,0.007,0.0061,0.0125,0.0136,0.0147,0.0217,0,0,0,0,0,0,0.0796,0.0787,0.08,0.0643,0.0607,0.048,0.0467,0.0433,0.0392,0.0388,0.0256,0.0244,0.0155,0.0108,0.0083,0.0182,0.0053,0.0115,0.013,0.0143,0.0205,0.0229,0.025,0,0,0,0,0,0.0801,0.0805,0.0802,0.0791,0.0637,0.048,0.044,0.0346,0.0389,0.0327,0.0295,0.0251,0.0189,0.01,0.0071,0.0169,0.0108,0.0126,0.0142,0.0195,0.0225,0.025,0,0,0,0,0,0,0.0838,0.0789,0.0784,0.077,0.0653,0.0469,0.0417,0.0381,0.0287,0.0323,0.0238,0.0219,0.0256,0.0216,0.0124,0.0262,0.0185,0.0196,0.0237,0.0263,0.0285,0.0224,0.0045,0,0,0,0,0,0.0866,0.0868,0.0765,0.0748,0.0711,0.058,0.0513,0.0454,0.0367,0.0329,0.0243,0.0246,0.0284,0.0274,0.0243,0.0234,0.0198,0.0332,0.0354,0.0372,0.0322,0.0393,0.0413,0.0207,0.0206,0.0206,0,0,0.0877,0.0853,0.0853,0.0758,0.0666,0.0562,0.0545,0.0459,0.041,0.0335,0.0249,0.0277,0.0305,0.0324,0.0348,0.0305,0.0423,0.0394,0.0407,0.0346,0.0412,0.043,0.0447,0.0218,0.0216,0.0214,0,0,0.088,0.0882,0.0874,0.0775,0.068,0.0578,0.0587,0.0429,0.041,0.0342,0.0363,0.0424,0.0385,0.0412,0.0451,0.0582,0.0538,0.0676,0.0704,0.0777,0.079,0.0801,0.078,0.0789,0.0687,0.0687,0.0687,0,0.0897,0.0867,0.083,0.0762,0.0684,0.0613,0.0527,0.0471,0.0323,0.0357,0.0357,0.0412,0.0427,0.0523,0.0612,0.0617,0.0633,0.0573,0.0791,0.0802,0.0812,0.0789,0.0797,0.0692,0.0692,0.0691,0.0691,0,0.0857,0.0821,0.0796,0.0703,0.0603,0.0514,0.0442,0.0418,0.0435,0.0401,0.0491,0.0475,0.0533,0.0621,0.0648,0.0792,0.077,0.0798,0.0683,0.0835,0.0804,0.0811,0.07,0.0698,0.0697,0.0695,0,0,0.0903,0.0799,0.0785,0.0739,0.0566,0.0488,0.0467,0.0428,0.048,0.0438,0.0501,0.0608,0.064,0.069,0.0747,0.0813,0.0926,0.0857,0.0859,0.0763,0.1041,0.093,0.0926,0.1014,0.1016,0.1018,0.0984,0,0.0868,0.0777,0.071,0.0583,0.0507,0.0451,0.0419,0.0408,0.0432,0.0468,0.0583,0.0649,0.0665,0.0746,0.081,0.0916,0.0953,0.0928,0.097,0.0968,0.0792,0.0934,0.1025,0.0989,0.0991,0.0992,0.0992,0,0.0824,0.0768,0.0665,0.0566,0.0534,0.0459,0.0446,0.0415,0.0502,0.0553,0.0631,0.0688,0.0802,0.0811,0.0928,0.0929,0.0987,0.1025,0.1026,0.0881,0.0871,0.082,0.1004,0.1003,0.1002,0.1002,0.1001,0,0.086,0.0732,0.0672,0.0608,0.0483,0.0501,0.0462,0.0477,0.0508,0.0623,0.0677,0.0759,0.0839,0.0917,0.1003,0.1014,0.1099,0.1123,0.1026,0.1015,0.1077,0.1065,0.1182,0.1182,0.1182,0.1182,0.1182,0,0.082,0.0771,0.071,0.0666,0.0631,0.054,0.0539,0.0572,0.0607,0.0638,0.0729,0.0758,0.0891,0.0955,0.1012,0.1018,0.1105,0.101,0.1015,0.1116,0.1109,0.1079,0.1068,0.1181,0.1181,0.1181,0.1181,0,0.0837,0.0793,0.0725,0.0653,0.0645,0.0628,0.0579,0.0586,0.0638,0.0685,0.0742,0.0822,0.0891,0.0942,0.1058,0.1017,0.1051,0.1028,0.1066,0.1077,0.09,0.0894,0.0904,0.09,0.0897,0.0894,0.0892,0,0.0826,0.0805,0.0749,0.0717,0.0685,0.0653,0.0625,0.0631,0.0619,0.0691,0.0717,0.0816,0.0855,0.0879,0.095,0.0971,0.0973,0.0943,0.0963,0.0875,0.088,0.0879,0.0878,0.0887,0.0886,0.0885,0.0884,0,0.0802,0.0814,0.0772,0.0721,0.0686,0.0616,0.059,0.0597,0.0597,0.0666,0.0693,0.0733,0.0771,0.0821,0.0837,0.0862,0.0948,0.0909,0.0916,0.0935,0.0854,0.0862,0.0865,0.0873,0.0875,0.0876,0.0876,0,0.0801,0.078,0.0754,0.0686,0.0642,0.0564,0.0555,0.0518,0.0526,0.061,0.0613,0.0694,0.0762,0.0761,0.0785,0.0789,0.078,0.0749,0.0764,0.0777,0.0753,0.0634,0.0581,0,0,0,0,0,0.0776,0.0751,0.0702,0.0606,0.0554,0.0527,0.0502,0.049,0.0528,0.053,0.0568,0.0604,0.0632,0.0671,0.0653,0.0711,0.0775,0.0681,0.0744,0.0811,0.0824,0.0809,0,0,0,0,0,0,0.0755,0.0739,0.0693,0.0543,0.0475,0.0399,0.0388,0.041,0.0404,0.0475,0.0507,0.0551,0.0604,0.0656,0.0646,0.0652,0.0669,0.0726,0.0723,0.0803,0.0815,0.0826,0.0815,0,0,0,0,0]},{"header":{"parameterUnit":"m.s-1","parameterCategory":2,"la1":30.2991,"la2":30.254,"lo1":-89.0895,"lo2":-89.0444,"dy":0.0017,"dx":0.0017,"nx":28,"ny":28,"refTime":"2024-06-11T09:00:00:Z","depth":"4","parameterNumber":3,"parameterNumberName":"V-component_of_CURRENTS"},"data":[0,0,0,0,0,0,0,0,0,0,0,0,0,0,0,0,0,0,0,0,0,0,0,0,0,0,0,0,0,0,0,0,0,0,0,0,0,0,0,0,0,0,0,0,0,0,0,0,0,0,0,0,0,0,0,0,0,0,0.0075,0.0076,0,0.0222,0.0225,0.0227,0.0291,0.0289,0.0288,0.0287,0.0601,0.061,0.0619,0,0,0,0,0,0,0,0,0,0,0,0,0,0.0047,0.0046,0.0075,0.0076,0.0077,0.0222,0.0225,0.0228,0.0291,0.0289,0.0288,0.0286,0.0598,0.0609,0.062,0,0,0,0,0,0,0,0,0,0,0,0,0,0.0123,0.0046,0.0075,0.0118,0.0122,0.0221,0.0225,0.0229,0.0291,0.0289,0.0287,0.0286,0.0594,0.0608,0.0622,0.0747,0,0,0.0665,0.0671,0,0,0,0,0,0,0,0,0.0118,0.0125,0.011,0.0115,0.012,0.0226,0.0329,0.0406,0.0292,0.0239,0.0287,0.0285,0.0485,0.0508,0.0553,0.0762,0.0775,0.0667,0.0675,0.0681,0.0685,0,0,0,0,0,0,0,0.0112,0.012,0.0144,0.0111,0.0117,0.0196,0.0204,0.0345,0.0382,0.0243,0.0245,0.0245,0.049,0.0539,0.0561,0.078,0.0666,0.0679,0.0688,0.0693,0.0994,0.0993,0,0,0,0,0,0,0.0064,0.0114,0.0139,0.0148,0.0102,0.0196,0.0206,0.0203,0.0377,0.0397,0.0246,0.0247,0.0516,0.0545,0.0573,0.0715,0.0681,0.0695,0.0703,0.0994,0.0993,0.0993,0,0,0,0,0,0,0.0063,0.0065,0.0133,0.0126,0.0138,0.0196,0.0194,0.0207,0.0248,0.0376,0.0401,0.0271,0.0516,0.0553,0.0715,0.0728,0.0701,0.0714,0.0995,0.0994,0.0993,0.101,0,0,0,0,0,0,0.0061,0.0064,0.0063,0.0122,0.0136,0.0202,0.0195,0.0211,0.0245,0.0248,0.0407,0.0433,0.0517,0.0693,0.0729,0.0747,0.0725,0.0995,0.0994,0.0993,0.1011,0.101,0.101,0,0,0,0,0,0.006,0.0061,0.0062,0.0066,0.0127,0.0202,0.0221,0.0263,0.0248,0.029,0.0393,0.0428,0.0707,0.0708,0.0749,0.0771,0.0996,0.0995,0.0993,0.1011,0.101,0.101,0,0,0,0,0,0,0.0059,0.0069,0.0071,0.0077,0.0136,0.0209,0.0238,0.0262,0.0375,0.0374,0.0486,0.0524,0.0653,0.0707,0.0703,0.0838,0.0832,0.0839,0.083,0.0831,0.0831,0.0773,0.0737,0,0,0,0,0,0.0051,0.0051,0.009,0.0103,0.0118,0.0177,0.0212,0.0243,0.0332,0.0376,0.0491,0.0585,0.0683,0.0753,0.0857,0.0981,0.0949,0.0993,0.0992,0.0992,0.0965,0.0928,0.0921,0.0988,0.0988,0.0989,0,0,0.0054,0.0059,0.0061,0.0103,0.0142,0.0212,0.0197,0.0247,0.0329,0.04,0.0559,0.0617,0.0714,0.0837,0.0892,0.0888,0.0957,0.0991,0.0991,0.0963,0.0925,0.0919,0.0913,0.0988,0.0988,0.0988,0,0,0.0066,0.0061,0.0069,0.0123,0.0169,0.0227,0.0234,0.032,0.0375,0.0537,0.0563,0.0608,0.0837,0.0852,0.09,0.0954,0.0959,0.0986,0.0958,0.0924,0.0918,0.0912,0.0866,0.0856,0.0983,0.0983,0.0983,0,0.007,0.0086,0.0094,0.0137,0.0189,0.0231,0.0295,0.0377,0.0518,0.0549,0.0592,0.0739,0.0827,0.0872,0.0892,0.0952,0.0939,0.0968,0.0924,0.0917,0.0911,0.0865,0.0854,0.0984,0.0984,0.0984,0.0984,0,0.0108,0.0132,0.0146,0.0216,0.0287,0.0345,0.0442,0.0523,0.0593,0.0645,0.0714,0.0792,0.085,0.087,0.0937,0.0908,0.0916,0.0933,0.0927,0.0905,0.0858,0.0846,0.0985,0.0985,0.0984,0.0984,0,0,0.0097,0.0154,0.0166,0.021,0.0329,0.0394,0.0521,0.062,0.0642,0.0756,0.0778,0.0881,0.0834,0.0872,0.0881,0.0846,0.0811,0.0886,0.0884,0.0842,0.0737,0.0744,0.0732,0.0844,0.0842,0.084,0.0724,0,0.0131,0.0196,0.024,0.0364,0.0415,0.0505,0.0613,0.0704,0.0768,0.0815,0.0801,0.0851,0.0863,0.0867,0.083,0.0834,0.078,0.084,0.076,0.0756,0.0768,0.0718,0.0834,0.0715,0.0712,0.071,0.0708,0,0.0171,0.0207,0.0293,0.0404,0.0433,0.0528,0.0646,0.0751,0.0797,0.0831,0.0808,0.0815,0.0787,0.0798,0.0723,0.0777,0.075,0.0722,0.0718,0.0702,0.074,0.0738,0.0686,0.0688,0.0689,0.0691,0.0692,0,0.0166,0.0264,0.0326,0.0376,0.0502,0.0564,0.0659,0.0731,0.0795,0.0816,0.0826,0.0774,0.0774,0.0719,0.0704,0.0729,0.0606,0.0632,0.0576,0.0576,0.06,0.0607,0.0529,0.0529,0.0529,0.053,0.053,0,0.0198,0.0258,0.0319,0.0363,0.0454,0.0553,0.0633,0.0706,0.0756,0.0787,0.0809,0.0789,0.0764,0.0716,0.0677,0.0594,0.0584,0.0538,0.0538,0.0611,0.0621,0.0591,0.06,0.0525,0.0526,0.0527,0.0528,0,0.02,0.0232,0.0307,0.0406,0.0451,0.0526,0.0671,0.0707,0.0758,0.0795,0.0818,0.0821,0.0769,0.0706,0.0613,0.0568,0.0484,0.0447,0.0512,0.0522,0.0475,0.0486,0.0357,0.0356,0.0355,0.0354,0.0354,0,0.0207,0.0233,0.0327,0.0373,0.0425,0.0536,0.0609,0.0714,0.0748,0.08,0.0808,0.0784,0.077,0.0617,0.0568,0.0448,0.0439,0.0382,0.0425,0.044,0.0453,0.0465,0.0477,0.0353,0.0352,0.0352,0.0352,0,0.0224,0.0239,0.0292,0.0363,0.0444,0.0545,0.0649,0.0675,0.0771,0.0802,0.0788,0.0747,0.0673,0.0595,0.0512,0.043,0.042,0.0374,0.0375,0.0414,0.0434,0.045,0.0462,0.0349,0.035,0.035,0.035,0,0.0232,0.0256,0.0298,0.0375,0.046,0.0538,0.0602,0.0659,0.0716,0.0764,0.0744,0.0703,0.0683,0.0583,0.0504,0.0435,0.0416,0.0386,0.0386,0.0388,0.0453,0.0486,0.0386,0,0,0,0,0,0.0243,0.0267,0.0321,0.0396,0.0468,0.0528,0.0623,0.0671,0.0731,0.0715,0.0737,0.0675,0.0585,0.0553,0.0478,0.0487,0.0404,0.0396,0.0369,0.0334,0.0337,0.041,0,0,0,0,0,0,0.025,0.029,0.031,0.039,0.0445,0.0537,0.0601,0.0645,0.0641,0.0677,0.0629,0.0635,0.0547,0.0614,0.0465,0.0451,0.0419,0.0367,0.0365,0.0332,0.0335,0.0338,0.0414,0,0,0,0,0]}]]